Weather History for KDEN - September, 2013

Change the Weather History Date:

Tuesday, September 17, 2013

  Actual Average Record
Temperature  
Mean Temperature 70 °F 63 °F  
Max Temperature 82 °F 78 °F 95 °F (2000)
Min Temperature 58 °F 48 °F 30 °F (1965)
Degree Days  
Heating Degree Days 0 4  
Month to date heating degree days 10 41  
Since 1 July heating degree days 10 57  
Cooling Degree Days 5 2  
Month to date cooling degree days 120 60  
Year to date cooling degree days 986 748  
Growing Degree Days 20 (Base 50)    
Moisture  
Dew Point 48 °F    
Average Humidity 51    
Maximum Humidity 78    
Minimum Humidity 23    
Precipitation  
Precipitation 0.00 in 0.03 in 1.17 in (1971)
Month to date precipitation 4.65 0.56  
Year to date precipitation 15.40 11.92  
Snow  
Snow 0.00 in - - ()
Month to date snowfall 0  
Since 1 July snowfall 0  
Since 1 September snowfall 0  
Snow Depth 0.00 in    
Sea Level Pressure  
Sea Level Pressure 29.79 in    
Wind  
Wind Speed 11 mph (SSW)    
Max Wind Speed 22 mph    
Max Gust Speed 26 mph    
Visibility 10 miles    
Events      
T = Trace of Precipitation, MM = Missing Value Source: NWS Daily Summary

Daily Weather History Graph

Daily Weather History Graph

Search for Another Location

Airport or City:

Trip Planner

Search our weather history database for the weather conditions in past years. The results will help you decide how hot, cold, wet, or windy it might be!

Date:

Astronomy

Sep. 17, 2013 Rise Set
Actual Time 6:41 AM MDT 7:03 PM MDT
Civil Twilight 6:14 AM MDT 7:30 PM MDT
Nautical Twilight 5:42 AM MDT 8:02 PM MDT
Astronomical Twilight 5:10 AM MDT 8:34 PM MDT
Moon 5:52 PM MDT (9/17) 4:39 AM MDT (9/17)
Length of Visible Light 13h 15m
Length of Day
12h 21m
Waxing Gibbous, 96% of the Moon is Illuminated
Sep 17
Waxing Gibbous
Sep 19
Full
Sep 26
Last Quarter
Oct 4
New
Oct 11
First Quarter

Hourly Weather History & Observations

Time (MDT) Temp. Dew Point Humidity Pressure Visibility Wind Dir Wind Speed Gust Speed Precip Events Conditions
12:53 AM 60.1 °F 53.1 °F 78% 29.92 in 10.0 mi SSW 10.4 mph - N/A   Clear
1:53 AM 60.1 °F 53.1 °F 78% 29.91 in 10.0 mi SSW 12.7 mph - N/A   Clear
2:53 AM 59.0 °F 52.0 °F 78% 29.88 in 10.0 mi SW 12.7 mph - N/A   Clear
3:53 AM 59.0 °F 50.0 °F 72% 29.88 in 10.0 mi SSW 15.0 mph - N/A   Partly Cloudy
4:53 AM 59.0 °F 48.9 °F 69% 29.87 in 10.0 mi SSW 13.8 mph - N/A   Partly Cloudy
5:53 AM 59.0 °F 48.0 °F 67% 29.87 in 10.0 mi SW 15.0 mph - N/A   Partly Cloudy
6:53 AM 59.0 °F 46.9 °F 64% 29.88 in 10.0 mi SW 17.3 mph - N/A   Partly Cloudy
7:53 AM 61.0 °F 46.9 °F 60% 29.89 in 10.0 mi SW 15.0 mph - N/A   Partly Cloudy
8:53 AM 66.0 °F 48.0 °F 52% 29.88 in 10.0 mi SW 13.8 mph - N/A   Partly Cloudy
9:53 AM 71.1 °F 48.0 °F 44% 29.87 in 10.0 mi SW 10.4 mph - N/A   Partly Cloudy
10:53 AM 75.9 °F 46.9 °F 36% 29.84 in 10.0 mi SW 9.2 mph - N/A   Partly Cloudy
11:53 AM 80.1 °F 45.0 °F 29% 29.81 in 10.0 mi SW 6.9 mph - N/A   Partly Cloudy
12:53 PM 80.1 °F 42.1 °F 26% 29.79 in 10.0 mi SSW 5.8 mph - N/A   Partly Cloudy
1:53 PM 81.0 °F 39.0 °F 22% 29.76 in 10.0 mi SSW 4.6 mph - N/A   Partly Cloudy
2:53 PM 82.0 °F 43.0 °F 25% 29.73 in 10.0 mi SSE 10.4 mph - N/A   Scattered Clouds
3:53 PM 82.0 °F 44.1 °F 26% 29.71 in 10.0 mi SSE 8.1 mph - N/A   Scattered Clouds
4:53 PM 81.0 °F 46.0 °F 29% 29.69 in 10.0 mi SSE 6.9 mph - N/A   Scattered Clouds
5:53 PM 78.1 °F 45.0 °F 31% 29.68 in 10.0 mi ESE 11.5 mph - N/A   Scattered Clouds
6:53 PM 71.1 °F 51.1 °F 49% 29.70 in 10.0 mi ESE 9.2 mph - N/A   Scattered Clouds
7:53 PM 68.0 °F 51.1 °F 55% 29.70 in 10.0 mi SE 9.2 mph - N/A   Scattered Clouds
8:53 PM 63.0 °F 53.1 °F 70% 29.71 in 10.0 mi SSE 9.2 mph - N/A   Scattered Clouds
9:53 PM 64.0 °F 52.0 °F 65% 29.68 in 10.0 mi South 10.4 mph - N/A   Scattered Clouds
10:53 PM 68.0 °F 51.1 °F 55% 29.66 in 10.0 mi SSW 16.1 mph 25.3 mph N/A   Scattered Clouds
11:53 PM 64.9 °F 51.1 °F 61% 29.65 in 10.0 mi SW 11.5 mph - N/A   Scattered Clouds